sat.trackr.live / text

‹ back to catalog

STARLINK-2659

NORAD 48467 · 2021-040AR

PAYLOAD ACTIVE UNKNOWN

§ Identity

Operator
Country
US
Launch date
2021-05-09
Launch site
AFETR
Launch vehicle
Mass (kg)
RCS (m²)

Purposes: comms

External: N2YO · Heavens-Above · Gunter

§ Orbital elements

Epoch: 2026-09-20T00:13:43.329792Z

Period
94.01 min
Inclination
53.1617°
Eccentricity
0.0000872
Mean motion
15.31697339 rev/d
Perigee alt
470.2 km
Apogee alt
471.3 km
Semi-major
6,848.9 km
B*
2.6169e-5
RAAN
6.6671°
Arg perigee
82.7362°
Mean anomaly
277.3739°
Rev number
29,628

§ Raw data

STARLINK-26591 48467U 21040AR  26263.00952928  .00000447  00000+0  26169-4 0  99922 48467  53.1617   6.6671 0000872  82.7362 277.3739 15.31697339296287

JSON: /api/v1/satellites/48467 · /tle

For live sub-satellite position, see the globe view (requires WebGL).

§ Visibility from observer

Set your observer location to see the next 7 days of passes ≥ 10°. The values pass through the URL so the page stays shareable.

No JS? Fill the form by hand. The geolocation button needs JavaScript.